Regional Weather Roundup
Issued by NWS

Home | Current Version | Previous Version | Text Only | Print | Product List | Glossary Off
Versions: 1 2 3 4 5 6 7 8 9 10 11 12 13 14 15 16 17 18 19 20 21 22 23 24 25 26 27 28 29 30 31 32 33 34 35 36 37 38 39 40 41 42 43 44 45 46 47 48 49 50

795
ASUS43 KMPX 251810
RWRMN
WEATHER ROUNDUP FOR MINNESOTA
NATIONAL WEATHER SERVICE TWIN CITIES/CHANHASSEN MN
100 PM CDT SUN SEP 25 2016


NOTE: "FAIR" INDICATES FEW OR NO CLOUDS BELOW 12,000 FEET WITH NO
SIGNIFICANT WEATHER AND/OR OBSTRUCTIONS TO VISIBILITY. N/A MEANS
CURRENT SKY AND/OR WEATHER CONDITIONS ARE NOT AVAILABLE.

MNZ060>063-068>070-251900-
   Twin Cities Metro

CITY           SKY/WX    TMP DP  RH WIND       PRES   REMARKS
TWIN CITIES    CLOUDY    65  52  62 W16       29.91R
6HR MIN TEMP:  60; 6HR MAX TEMP:  69; 6HR PCP:  0.18;

ST PAUL        PTSUNNY   65  53  65 SW20G28   29.91R
CRYSTAL        CLOUDY    62  50  64 W13G18    29.90R
BLAINE         CLOUDY    64  54  68 W14G24    29.90R
LAKEVILLE      PTSUNNY   63  52  67 W12G22    29.92S
EDEN PRAIRIE   CLOUDY    63  52  67 W12G21    29.91R
6HR MIN TEMP:  60; 6HR MAX TEMP:  66; 6HR PCP:  0.10;

LAKEVILLE      PTSUNNY   63  52  67 W12G22    29.92S
SOUTH ST PAUL  MOSUNNY   66  52  61 W14G24    29.91R
LAKE ELMO      PTSUNNY   64  54  68 SW18G25   29.92R
$$
MNZ001>005-007-008-013>017-022>024-027-028-251900-
   Northwest Minnesota

CITY           SKY/WX    TMP DP  RH WIND       PRES   REMARKS
BEMIDJI        CLOUDY    56  51  84 SW15      29.75R
HALLOCK        CLOUDY    54  52  94 NW23G33   29.71S FOG
ROSEAU         CLOUDY    59  54  82 SW10G17   29.67S
WARROAD        CLOUDY    57  52  82 SW10      29.67S
THIEF RVR FALL CLOUDY    55  52  89 NW24G32   29.73R FOG
CROOKSTON      CLOUDY    54  54 100 NW22G31   29.77R
FOSSTON        CLOUDY    54  54 100 W15       29.75S FOG
DETROIT LAKES  LGT RAIN  54  52  94 W15G23    29.83R
MOORHEAD       PTSUNNY   59  52  77 NW24G31   29.84R
PARK RAPIDS    CLOUDY    57  53  86 SW12      29.80R FOG
MAHNOMEN       CLOUDY    54  52  93 W20G28    29.78R FOG
$$
MNZ006-009>011-018-025>026-251900-
   North Central Minnesota

CITY           SKY/WX    TMP DP  RH WIND       PRES   REMARKS
BAUDETTE       CLOUDY    60  51  72 SW15G24   29.67R
FLAG ISLAND    MOSUNNY   61  52  72 SW15      29.62S
INTL FALLS     MOSUNNY   67  59  75 SW9G16    29.66S
6HR MIN TEMP:  62; 6HR MAX TEMP:  69; 6HR PCP:  0.19;

WASKISH        CLOUDY    61  54  77 SW13      29.71S
BIG FORK       CLOUDY    61  52  72 SW16G26   29.74R
LONGVILLE      PTSUNNY   63  52  67 SW8G16    29.78S
GRAND RAPIDS   CLOUDY    59  51  75 SW12      29.79R
CRANE LAKE     PTSUNNY   66  63  88 S7        29.71F FOG
ORR            CLOUDY    66  61  82 S9        29.68F
COOK           MOSUNNY   70  61  73 S12G21    29.71F
WALKER         CLOUDY    58  50  75 SW10G23   29.76S
$$
MNZ012-019>021-037-251900-
   Northeast Minnesota

CITY           SKY/WX    TMP DP  RH WIND       PRES   REMARKS
DULUTH         PTSUNNY   69  61  75 SW17      29.77F
6HR MIN TEMP:  60; 6HR MAX TEMP:  69; 6HR PCP:  0.53;

ELY            PTSUNNY   64  63  94 S8        29.75F
HIBBING        MOSUNNY   65  56  72 SW10G21   29.74F
EVELETH        PTSUNNY   68  60  75 SW15G22   29.75F
DULUTH HARBOR  CLOUDY    66  63  88 S13       29.77F
TWO HARBORS    CLOUDY    68  63  83 SW7       29.76F
SILVER BAY     FOG       64  63  94 S6        29.76F VSB 3/4
GRAND MARAIS     N/A     62  61  96 E5        29.80F
G MARAIS ARPRT RAIN      57  55  94 SE9G16    29.82F VSB 1
$$
MNZ029>031-032-039>041-046>048-054>057-064-251900-
   West Central Minnesota

CITY           SKY/WX    TMP DP  RH WIND       PRES   REMARKS
FERGUS FALLS   CLOUDY    55  52  88 W15G21    29.90R
MORRIS         CLOUDY    61  52  72 NW28      29.90R
ALEXANDRIA     LGT RAIN  57  53  86 W23G30    29.88R
ELBOW LAKE     CLOUDY    58  51  77 NW17G25   29.90R
GLENWOOD       PTSUNNY   59  52  77 W21G30    29.89R
BENSON         CLOUDY    61  48  63 NW23G32   29.91R
MADISON          N/A     63  52  67 W23G33    29.95R
WILLMAR        CLOUDY    61  55  82 W21G29    29.93R FOG
$$
MNZ033>034-036-042>043-049>051-058-059-251900-
   Central Minnesota

CITY           SKY/WX    TMP DP  RH WIND       PRES   REMARKS
ST CLOUD       CLOUDY    61  54  77 SW13      29.88S
6HR MIN TEMP:  57; 6HR MAX TEMP:  66; 6HR PCP:  0.03;

SAUK CENTRE    CLOUDY    60  53  79 W16G28    29.88R
PAYNESVILLE    CLOUDY    61  56  81 W21G28    29.90R
AITKIN         CLOUDY    61  50  67 SW10G20   29.81S
PINE RIVER     CLOUDY    61  52  72 SW10      29.83F
BRAINERD       CLOUDY    59  52  77 SW15      29.83S
STAPLES        CLOUDY    57  52  82 SW16G23   29.83R
LONG PRAIRIE   CLOUDY    57  52  82 SW15G21   29.87R
LITTLE FALLS   CLOUDY    59  50  72 SW7       29.86S
LITCHFIELD     CLOUDY    64  55  72 W10G20    29.90F
BUFFALO        CLOUDY    60  52  73 SW9       29.91F
MAPLE LAKE     CLOUDY    62  55  78 SW6       29.91S
HUTCHINSON     CLOUDY    64  54  68 SW17G25   29.92F
$$
MNZ037-044-045-052-053-251900-
   East Central Minnesota

CITY           SKY/WX    TMP DP  RH WIND       PRES   REMARKS
PRINCETON      CLOUDY    63  54  72 SW13      29.88F
MORA           CLOUDY    55  50  82 SW12G18   29.88R
CAMBRIDGE      CLOUDY    61  50  67 SW16G22   29.88R
MOOSE LAKE     MOSUNNY   66  54  63 SW14      29.79S
HINCKLEY       MOCLDY    63  54  72 W18       29.85R
CLOQUET        PTSUNNY   66  55  68 SW15G22   29.78S
MCGREGOR       CLOUDY    59  52  77 SW15G22   29.83R
$$
MNZ071>073-080-081-089-090-097-098-251900-
   Southwest Minnesota

CITY           SKY/WX    TMP DP  RH WIND       PRES   REMARKS
MONTEVIDEO     CLOUDY    63  52  67 NW20G29   29.95R
GRANITE FALLS  CLOUDY    63  53  70 W22G30    29.97R
CANBY          CLOUDY    61  51  70 NW24G31   29.99R
MARSHALL       CLOUDY    61  51  70 W22G32    29.97R
REDWOOD FALLS  CLOUDY    63  51  65 W21G30    29.94R
OLIVIA         CLOUDY    63  52  67 W22       29.92S
PIPESTONE      CLOUDY    59  48  67 NW21G28   30.02R
WINDOM         CLOUDY    61  50  67 W18G25    29.99S
WORTHINGTON    CLOUDY    58  50  75 W21       30.03
JACKSON        CLOUDY    61  46  59 W14G24    30.02R
TRACY          CLOUDY    61  53  73 W14G23    29.99R
SLAYTON        CLOUDY    57  50  77 W17G26    30.02R
$$
MNZ065>067-074>077-082>085-091>093-251900-
   South Central Minnesota

CITY           SKY/WX    TMP DP  RH WIND       PRES   REMARKS
MANKATO        CLOUDY    63  52  67 W18G24    29.96R
NEW ULM        CLOUDY    63  52  67 W16       29.95S
ST JAMES       CLOUDY    63  52  67 W15       29.99R
GLENCOE        CLOUDY    62  55  77 SW12      29.93R
FARIBAULT      CLOUDY    66  54  63 SW16      29.95R
OWATONNA       MOSUNNY   70  52  52 SW14G23   29.95S
WASECA         CLOUDY    66  52  59 SW18      29.96F
ALBERT LEA     CLOUDY    64  52  63 SW12G22   29.97F
$$
MNZ078>079-086>088-094>096-251900-
   Southeast Minnesota

CITY           SKY/WX    TMP DP  RH WIND       PRES   REMARKS
ROCHESTER      CLOUDY    65  55  70 SW16      29.96S
6HR MIN TEMP:  64; 6HR MAX TEMP:  68; 6HR PCP:  0.01;

RED WING       PTSUNNY   68  55  64 W10       29.90S
STANTON        MOSUNNY   67  53  59 W16G24    29.92R
DODGE CENTER   CLOUDY    63  54  72 SW14      29.95S
WINONA         CLOUDY    72  61  68 SW6       29.92S
AUSTIN         CLOUDY    63  54  72 SW14G20   29.97F
PRESTON        MOSUNNY   67  57  70 SW9G16    29.96F
$$
ABBREVIATIONS USED IN REMARKS
   TC - TEMPERATURES IN CELSIUS
  WCI - WIND CHILL INDEX
   HX - HEAT INDEX
  VSB - VISIBILITY
$$




USA.gov is the U.S. government's official web portal to all federal, state and local government web resources and services.